This demonstration page uses our WeatherBlox Daily Observations layout. Learn more.

40.92945, -100.16068

Hourly Observations for March 15, 2019

Temp ( °F °C ) Dew Point ( °F °C ) Humidity (%) Winds ( mph kmh ) Pressure ( in mb ) Visibility ( mi km ) Precip ( " mm )
12:15 am 00:15 Clear 31 -0.3 24 -4.5 74 74 NW 17 28 30.33 1027 10 16.09344 0 0
12:35 am 00:35 Clear 31 -0.6 24 -4.7 74 74 WNW 16 26 30.36 1028 10 16.09344 0 0
12:55 am 00:55 Clear 31 -0.8 24 -4.7 75 75 WNW 14 22 30.36 1028 10 16.09344 0 0
1:15 am 01:15 Clear 30 -1 24 -4.6 77 77 WNW 13 20 30.36 1028 10 16.09344 0 0
1:35 am 01:35 Clear 31 -0.8 23 -4.9 74 74 NW 15 24 30.36 1028 10 16.09344 0 0
1:55 am 01:55 Clear 31 -0.7 23 -5.1 72 72 NW 15 24 30.36 1028 10 16.09344 0 0
2:15 am 02:15 Clear 30 -1 23 -5.2 73 73 NW 16 26 30.36 1028 10 16.09344 0 0
2:35 am 02:35 Clear 30 -1 22 -5.5 72 72 NW 17 28 30.39 1029 10 16.09344 0 0
2:55 am 02:55 Clear 30 -1 22 -5.6 71 71 NW 16 26 30.39 1029 10 16.09344 0 0
3:15 am 03:15 Clear 30 -1 22 -5.8 70 70 NW 16 26 30.39 1029 10 16.09344 0 0
3:35 am 03:35 Clear 30 -1.1 21 -6 70 70 NW 14 22 30.39 1029 10 16.09344 0 0
3:55 am 03:55 Clear 29 -1.4 21 -6 71 71 NW 12 19 30.39 1029 10 16.09344 0 0
4:15 am 04:15 Clear 29 -1.7 21 -6 73 73 NW 13 20 30.39 1029 10 16.09344 0 0
4:35 am 04:35 Clear 29 -1.8 21 -6 73 73 NW 13 20 30.39 1029 10 16.09344 0 0
4:55 am 04:55 Clear 28 -2 22 -5.8 76 76 NW 13 20 30.39 1029 10 16.09344 0 0
5:15 am 05:15 Clear 28 -2.2 21 -6 75 75 WNW 13 20 30.39 1029 10 16.09344 0 0
5:35 am 05:35 Clear 28 -2.5 22 -5.7 79 79 WNW 13 20 30.42 1030 10 16.09344 0 0
5:55 am 05:55 Clear 27 -2.6 21 -6 78 78 WNW 13 20 30.42 1030 10 16.09344 0 0
6:15 am 06:15 Clear 27 -2.8 21 -6.2 78 78 WNW 12 19 30.45 1031 10 16.09344 0 0
6:35 am 06:35 Clear 27 -3 21 -6.3 78 78 WNW 10 17 30.45 1031 10 16.09344 0 0
6:55 am 06:55 Clear 27 -3 21 -6.2 79 79 WNW 14 22 30.48 1032 10 16.09344 0 0
7:15 am 07:15 Clear 26 -3.1 20 -6.5 78 78 NW 12 19 30.48 1032 10 16.09344 0 0
7:35 am 07:35 Clear 26 -3.3 20 -6.5 79 79 NW 10 17 30.48 1032 10 16.09344 0 0
7:55 am 07:55 Sunny 26 -3.2 20 -6.5 78 78 NW 8 13 30.48 1032 10 16.09344 0 0
8:15 am 08:15 Sunny 26 -3.4 20 -6.4 80 80 NW 7 11 30.48 1032 10 16.09344 0 0
8:35 am 08:35 Sunny 27 -3 21 -6 80 80 WNW 9 15 30.48 1032 10 16.09344 0 0
8:55 am 08:55 Sunny 28 -2.5 21 -6.1 77 77 WNW 14 22 30.5 1033 10 16.09344 0 0
9:15 am 09:15 Sunny 29 -1.7 21 -5.9 73 73 WNW 13 20 30.48 1032 10 16.09344 0 0
9:35 am 09:35 Sunny 30 -1 21 -5.9 70 70 WNW 13 20 30.48 1032 10 16.09344 0 0
9:55 am 09:55 Sunny 31 -0.4 22 -5.3 70 70 WNW 12 19 30.48 1032 10 16.09344 0 0
10:15 am 10:15 Sunny 32 0 23 -4.8 70 70 WNW 13 20 30.48 1032 10 16.09344 0 0
10:35 am 10:35 Sunny 33 0.7 23 -4.9 66 66 WNW 13 20 30.48 1032 10 16.09344 0 0
10:55 am 10:55 Sunny 35 1.4 24 -4.6 65 65 WNW 10 17 30.45 1031 10 16.09344 0 0
11:15 am 11:15 Sunny 36 2 24 -4.6 62 62 WNW 10 17 30.45 1031 10 16.09344 0 0
11:35 am 11:35 Sunny 37 2.6 24 -4.5 60 60 WNW 12 19 30.45 1031 10 16.09344 0 0
11:55 am 11:55 Sunny 38 3.1 25 -4.1 60 60 WNW 10 17 30.45 1031 10 16.09344 0 0
12:15 pm 12:15 Sunny 38 3.6 24 -4.6 55 55 WNW 10 17 30.45 1031 10 16.09344 0 0
12:35 pm 12:35 Sunny 39 4.1 24 -4.5 54 54 WNW 13 20 30.42 1030 10 16.09344 0 0
12:55 pm 12:55 Sunny 40 4.3 25 -3.8 56 56 WNW 14 22 30.42 1030 10 16.09344 0 0
1:15 pm 13:15 Sunny 40 4.7 25 -4.1 53 53 NW 9 15 30.42 1030 10 16.09344 0 0
1:35 pm 13:35 Sunny 41 5.1 25 -3.9 53 53 WNW 7 11 30.42 1030 10 16.09344 0 0
1:55 pm 13:55 Sunny 42 5.5 25 -4.1 50 50 NW 7 11 30.42 1030 10 16.09344 0 0
2:15 pm 14:15 Sunny 42 5.6 23 -4.9 47 47 NNW 12 19 30.42 1030 10 16.09344 0 0
2:35 pm 14:35 Sunny 42 5.7 23 -4.9 47 47 NNW 9 15 30.39 1029 10 16.09344 0 0
2:55 pm 14:55 Sunny 43 6 23 -5 46 46 NNW 6 9 30.39 1029 10 16.09344 0 0
3:15 pm 15:15 Sunny 44 6.5 24 -4.2 47 47 N 10 17 30.39 1029 10 16.09344 0 0
3:35 pm 15:35 Sunny 44 6.9 23 -5.1 42 42 NW 7 11 30.36 1028 10 16.09344 0 0
3:55 pm 15:55 Sunny 45 7 23 -5.1 42 42 WNW 10 17 30.36 1028 10 16.09344 0 0
4:15 pm 16:15 Sunny 45 7.2 21 -6 39 39 WNW 7 11 30.36 1028 10 16.09344 0 0
4:35 pm 16:35 Sunny 45 7.2 20 -6.7 37 37 NW 8 13 30.36 1028 10 16.09344 0 0
4:55 pm 16:55 Sunny 46 7.6 22 -5.4 40 40 WNW 12 19 30.36 1028 10 16.09344 0 0
5:15 pm 17:15 Sunny 46 7.8 22 -5.6 38 38 NNW 10 17 30.36 1028 10 16.09344 0 0
5:35 pm 17:35 Sunny 46 7.7 20 -6.5 36 36 NW 7 11 30.33 1027 10 16.09344 0 0
5:55 pm 17:55 Sunny 46 7.8 21 -6.3 36 36 NNW 5 7 30.33 1027 10 16.09344 0 0
6:15 pm 18:15 Sunny 46 7.7 21 -5.9 38 38 N 5 7 30.33 1027 10 16.09344 0 0
6:35 pm 18:35 Sunny 46 7.6 20 -6.9 35 35 Calm 30.33 1027 10 16.09344 0 0
6:55 pm 18:55 Sunny 46 7.5 24 -4.5 43 43 NNW 3 6 30.33 1027 10 16.09344 0 0
7:15 pm 19:15 Sunny 44 6.9 28 -2.1 53 53 NNE 3 6 30.33 1027 10 16.09344 0 0
7:35 pm 19:35 Sunny 44 6.6 22 -5.5 42 42 Calm 30.33 1027 10 16.09344 0 0
7:55 pm 19:55 Clear 43 5.9 21 -6 42 42 ESE 3 6 30.36 1028 10 16.09344 0 0
8:15 pm 20:15 Clear 41 5 20 -6.6 43 43 ESE 3 6 30.36 1028 10 16.09344 0 0
8:35 pm 20:35 Clear 41 4.8 21 -6 46 46 SE 3 6 30.36 1028 10 16.09344 0 0
8:55 pm 20:55 Clear 37 2.6 26 -3.6 64 64 SE 3 6 30.39 1029 10 16.09344 0 0
9:15 pm 21:15 Clear 38 3.1 25 -3.9 60 60 S 6 9 30.39 1029 10 16.09344 0 0
9:35 pm 21:35 Clear 35 1.6 27 -2.8 73 73 S 6 9 30.39 1029 10 16.09344 0 0
9:55 pm 21:55 Clear 34 1.2 27 -2.7 76 76 S 3 6 30.39 1029 10 16.09344 0 0
10:15 pm 22:15 Clear 34 0.9 27 -2.7 77 77 SSE 5 7 30.39 1029 10 16.09344 0 0
10:35 pm 22:35 Clear 33 0.7 27 -2.9 77 77 S 3 6 30.39 1029 10 16.09344 0 0
10:55 pm 22:55 Clear 33 0.3 27 -3 79 79 S 3 6 30.45 1031 10 16.09344 0 0
11:15 pm 23:15 Clear 32 0.1 27 -3 80 80 SSE 6 9 30.42 1030 10 16.09344 0 0
11:35 pm 23:35 Clear 32 0 26 -3.2 79 79 SSE 5 7 30.45 1031 10 16.09344 0 0
11:55 pm 23:55 Clear 31 -0.6 26 -3.3 82 82 S 3 6 30.45 1031 10 16.09344 0 0

Powered by AerisWeather